GW5769 Weather Reports


time (UTC)temp
F
wind
direction
speed
knots
gust
knots
rain 1hr
in
rain 24hr
in
rain mn
in
humidity
%
barometer
mb
20260504110334 45 148 1.7 1.7 0.00 0.00 0.00 75 1010.6
20260504100251 46 211 0.9 1.7 0.00 0.00 0.00 72 1010.5
20260504081644 48 225 1.7 1.7 0.00 0.00 0.00 76 1010.7
20260504081141 48 242 0.9 1.7 0.00 0.00 0.00 77 1010.8
20260504080637 48 260 0.9 1.7 0.00 0.00 0.00 77 1010.5
20260504080134 48 218 0.9 0.9 0.00 0.00 0.00 77 1010.8
20260504050450 48 249 0.9 1.7 0.00 0.00 0.00 73 1011.1
20260504045947 48 164 0.9 0.9 0.00 0.00 0.00 72 1011.4
20260504045443 48 117 0.9 0.9 0.00 0.00 0.00 72 1011.3
20260504044939 48 143 1.7 1.7 0.00 0.00 0.00 72 1011.4
20260504044437 48 168 2.6 2.6 0.00 0.00 0.00 72 1011.4
20260504043934 48 256 0.9 1.7 0.00 0.00 0.00 71 1011.4
20260504043431 48 95 0.0 0.9 0.00 0.00 0.00 71 1011.6
20260504042928 48 70 0.0 0.0 0.00 0.00 0.00 71 1011.7
20260504042425 48 147 0.0 0.9 0.00 0.00 0.00 71 1011.2
20260504041921 48 132 0.9 0.9 0.00 0.00 0.00 71 1011.6
20260504041418 48 171 0.9 2.6 0.00 0.00 0.00 70 1011.5
20260504040914 48 320 0.9 0.9 0.00 0.00 0.00 68 1011.6
20260504040412 47 219 1.7 1.7 0.00 0.00 0.00 64 1011.6
20260504035908 47 142 0.9 0.9 0.00 0.02 0.02 63 1011.6
20260504035405 47 162 2.6 2.6 0.00 0.02 0.02 60 1011.5
20260504034902 47 238 2.6 2.6 0.00 0.02 0.02 59 1011.7
20260504034359 47 138 1.7 1.7 0.00 0.02 0.02 58 1011.5
20260504033856 47 148 0.9 1.7 0.00 0.02 0.02 58 1011.4
20260504033354 47 158 2.6 2.6 0.00 0.02 0.02 57 1011.4
20260504032850 47 128 0.0 0.9 0.00 0.02 0.02 57 1011.7
20260504032347 46 200 1.7 1.7 0.00 0.02 0.02 58 1011.6
20260504031844 46 163 0.9 0.9 0.00 0.02 0.02 60 1011.5
20260504031341 47 146 0.9 1.7 0.00 0.02 0.02 57 1011.4
20260504030837 47 170 0.9 0.9 0.00 0.02 0.02 54 1011.5
20260504030335 47 144 0.9 0.9 0.00 0.02 0.02 54 1011.2
20260504025831 47 275 0.9 0.9 0.00 0.02 0.02 56 1011.5
20260504025328 47 101 0.9 0.9 0.00 0.02 0.02 52 1011.1
20260504024825 47 157 0.9 0.9 0.00 0.02 0.02 56 1011.2
20260504024321 47 324 0.9 1.7 0.00 0.02 0.02 54 1011.3
20260504023818 47 232 0.0 0.9 0.00 0.02 0.02 52 1011.3
20260504023315 47 318 0.9 0.9 0.00 0.02 0.02 52 1011.4
20260504022810 46 94 0.9 0.9 0.00 0.02 0.02 52 1011.2
20260504022308 45 224 1.7 1.7 0.00 0.02 0.02 57 1011.2
20260504021804 46 315 1.7 1.7 0.00 0.02 0.02 55 1011.2
20260504021302 45 283 0.9 1.7 0.00 0.02 0.02 58 1011.3
20260504020758 44 276 1.7 1.7 0.00 0.02 0.02 54 1011.2
20260504020255 44 2 0.0 0.9 0.00 0.02 0.02 57 1011.2
20260504015751 44 301 0.9 0.9 0.00 0.02 0.02 56 1011.4
20260504015248 44 40 0.0 0.0 0.00 0.02 0.02 57 1011.4
20260504014743 44 293 1.7 1.7 0.00 0.02 0.02 56 1011.4
20260504014240 44 20 0.0 0.0 0.00 0.02 0.02 56 1011.3
20260504013738 45 34 0.0 0.9 0.00 0.02 0.02 54 1011.4
20260504013235 46 195 0.9 0.9 0.00 0.02 0.02 47 1011.4
20260504012731 45 210 0.9 0.9 0.00 0.02 0.02 50 1011.4
20260504012230 46 246 0.9 1.7 0.00 0.02 0.02 50 1011.4
20260504011726 45 14 0.0 0.0 0.00 0.02 0.02 56 1011.0
20260504011223 45 268 2.6 2.6 0.00 0.02 0.02 49 1011.0
20260504010719 45 265 2.6 2.6 0.00 0.02 0.02 51 1011.1
20260504010215 46 242 1.7 1.7 0.00 0.02 0.02 49 1010.9
20260504005711 48 295 0.9 1.7 0.00 0.02 0.02 48 1010.9
20260504005208 50 283 2.6 2.6 0.00 0.02 0.02 42 1010.9
20260504004707 50 322 1.7 2.6 0.00 0.02 0.02 41 1010.8
20260504004203 50 283 0.9 1.7 0.00 0.02 0.02 42 1010.7
20260504003700 50 297 2.6 2.6 0.00 0.02 0.02 41 1010.8
20260504003157 49 265 2.6 2.6 0.00 0.02 0.02 42 1010.6
20260504002653 50 296 0.9 1.7 0.00 0.02 0.02 42 1010.5
20260504002150 50 301 1.7 1.7 0.00 0.02 0.02 42 1010.3
20260504001649 51 348 0.9 0.9 0.00 0.02 0.02 41 1010.3
20260504001144 52 280 4.3 5.2 0.00 0.02 0.02 37 1010.4
20260504000642 52 284 2.6 4.3 0.00 0.02 0.02 38 1010.1
20260504000139 52 292 2.6 2.6 0.00 0.02 0.02 39 1010.1
20260503235637 52 285 3.5 4.3 0.00 0.02 0.02 35 1010.0
20260503235133 52 300 2.6 2.6 0.00 0.02 0.02 38 1010.0
20260503234631 53 293 3.5 6.1 0.00 0.02 0.02 36 1009.7
20260503234129 53 284 3.5 4.3 0.00 0.02 0.02 37 1009.8
20260503233626 51 291 4.3 5.2 0.00 0.02 0.02 40 1009.7
20260503233122 51 277 2.6 2.6 0.00 0.02 0.02 50 1009.3
20260503232619 50 284 0.9 1.7 0.00 0.02 0.02 51 1009.3
20260503232116 52 247 2.6 2.6 0.00 0.02 0.02 53 1009.2
20260503231614 54 236 1.7 1.7 0.00 0.02 0.02 45 1009.3
20260503231110 57 253 1.7 1.7 0.00 0.02 0.02 41 1009.3
20260503230607 57 359 0.0 0.0 0.00 0.02 0.02 40 1009.3
20260503230104 56 14 0.0 0.0 0.00 0.02 0.02 42 1009.1
20260503225602 56 30 0.0 0.0 0.00 0.02 0.02 39 1009.2
20260503225056 55 26 0.0 0.0 0.00 0.02 0.02 39 1009.1
20260503224554 55 27 1.7 1.7 0.00 0.02 0.02 36 1009.2
20260503224052 55 346 0.9 0.9 0.00 0.02 0.02 35 1009.0
20260503223550 55 36 0.0 0.0 0.00 0.02 0.02 41 1009.0
20260503223045 54 101 0.9 0.9 0.00 0.02 0.02 38 1009.0
20260503222543 53 36 1.7 1.7 0.00 0.02 0.02 43 1009.0
20260503222041 53 39 0.9 1.7 0.00 0.02 0.02 42 1009.2
20260503221539 53 36 0.9 0.9 0.00 0.02 0.02 44 1009.1
20260503221036 53 41 0.0 0.0 0.00 0.02 0.02 42 1009.1
20260503220532 54 52 0.0 0.0 0.00 0.02 0.02 42 1009.2
20260503220029 54 18 0.9 0.9 0.00 0.02 0.02 40 1009.3
20260503215526 54 34 0.9 0.9 0.00 0.02 0.02 39 1009.2
20260503215023 54 16 0.9 0.9 0.00 0.02 0.02 39 1009.2
20260503214521 54 317 4.3 5.2 0.00 0.02 0.02 39 1009.3
20260503214018 55 294 1.7 1.7 0.00 0.02 0.02 37 1009.4
20260503213516 54 23 2.6 2.6 0.00 0.02 0.02 38 1009.3
20260503213013 55 34 2.6 2.6 0.00 0.02 0.02 38 1009.2
20260503212510 56 331 0.0 0.0 0.00 0.02 0.02 40 1009.1
20260503212008 56 48 1.7 2.6 0.00 0.02 0.02 38 1009.3
20260503211504 56 9 0.0 0.9 0.00 0.02 0.02 39 1009.2
20260503211000 55 308 10.4 13.0 0.00 0.02 0.02 39 1009.3
20260503210457 54 42 2.6 5.2 0.00 0.02 0.02 40 1009.2
20260503205957 55 30 2.6 5.2 0.00 0.02 0.02 40 1009.5
20260503205454 55 64 5.2 7.8 0.00 0.02 0.02 42 1009.2
20260503204950 55 238 2.6 4.3 0.00 0.02 0.02 39 1009.6
20260503204448 55 21 4.3 5.2 0.00 0.02 0.02 40 1009.6
20260503203944 55 20 6.1 7.8 0.00 0.02 0.02 40 1009.7
20260503203442 55 5 3.5 4.3 0.00 0.02 0.02 42 1009.8
20260503202938 54 22 5.2 6.1 0.00 0.02 0.02 39 1009.7
20260503202437 53 43 0.9 1.7 0.00 0.02 0.02 43 1009.9
20260503201935 53 292 3.5 5.2 0.00 0.02 0.02 42 1009.8
20260503201432 53 274 9.6 13.9 0.00 0.02 0.02 40 1009.7
20260503200930 53 301 8.7 9.6 0.00 0.02 0.02 41 1009.9
20260503200426 53 359 1.7 2.6 0.00 0.02 0.02 41 1009.9
20260503195922 53 325 2.6 2.6 0.00 0.02 0.02 43 1009.9
20260503195420 53 343 4.3 5.2 0.00 0.02 0.02 43 1010.0
20260503194916 52 253 3.5 4.3 0.00 0.02 0.02 43 1009.8
20260503194413 52 311 2.6 2.6 0.00 0.02 0.02 48 1009.9
20260503193909 52 305 5.2 6.1 0.00 0.02 0.02 44 1010.1
20260503193404 52 265 3.5 5.2 0.00 0.02 0.02 43 1010.0
20260503192900 53 318 6.1 9.6 0.00 0.02 0.02 45 1010.4
20260503192356 52 0 0.0 0.0 0.00 0.02 0.02 47 1010.3
20260503191852 52 279 2.6 2.6 0.00 0.02 0.02 46 1010.3
20260503191350 52 261 2.6 2.6 0.00 0.02 0.02 45 1010.6
20260503190846 53 305 1.7 1.7 0.00 0.02 0.02 47 1010.3
20260503190343 53 4 2.6 2.6 0.00 0.02 0.02 44 1010.8
20260503185840 51 290 2.6 2.6 0.00 0.02 0.02 49 1010.6
20260503185337 52 276 4.3 6.1 0.00 0.02 0.02 45 1010.6
20260503184836 52 270 4.3 5.2 0.00 0.02 0.02 48 1010.6
20260503184333 51 290 2.6 2.6 0.00 0.02 0.02 50 1010.7
20260503183829 51 271 4.3 6.1 0.00 0.02 0.02 50 1010.9
20260503183326 51 278 4.3 6.1 0.00 0.02 0.02 50 1010.7
20260503182823 51 290 7.0 7.8 0.00 0.02 0.02 45 1010.6
20260503182323 51 280 6.1 7.8 0.00 0.02 0.02 49 1010.9
20260503181819 52 289 3.5 5.2 0.00 0.02 0.02 47 1011.0
20260503181316 51 227 1.7 2.6 0.00 0.02 0.02 46 1010.9
20260503180813 51 302 5.2 7.0 0.00 0.02 0.02 44 1011.1
20260503180311 50 249 3.5 5.2 0.00 0.02 0.02 48 1010.9
20260503175807 51 325 4.3 6.1 0.00 0.02 0.02 44 1011.0
20260503175305 51 29 2.6 2.6 0.00 0.02 0.02 47 1010.9
20260503174806 51 263 5.2 6.1 0.00 0.02 0.02 48 1011.1
20260503174304 50 288 5.2 7.0 0.00 0.02 0.02 49 1011.3
20260503173759 50 262 6.1 7.0 0.00 0.02 0.02 46 1011.3
20260503173255 50 315 6.1 7.8 0.00 0.02 0.02 47 1011.3
20260503172752 49 307 5.2 8.7 0.00 0.02 0.02 45 1011.4
20260503172250 49 337 4.3 7.8 0.00 0.02 0.02 46 1011.2
20260503171746 50 307 6.1 7.0 0.00 0.02 0.02 46 1011.1
20260503171243 50 322 4.3 5.2 0.00 0.02 0.02 49 1011.4
20260503170740 49 306 6.1 7.0 0.00 0.02 0.02 48 1011.3
20260503170237 49 303 3.5 4.3 0.00 0.02 0.02 50 1011.4
20260503160159 49 317 11.3 13.9 0.00 0.00 0.00 49 1011.4
20260503150629 49 14 2.6 4.3 0.00 0.00 0.00 53 1011.5
20260503150125 49 310 6.1 8.7 0.00 0.00 0.00 55 1011.7
20260503131019 46 284 6.1 7.0 0.00 0.00 0.00 65 1012.0
20260503130516 46 311 5.2 6.1 0.00 0.00 0.00 66 1012.3